Other Surface Observations
Issued by NWS

Home | Current Version | Previous Version | Text Only | Print | Product List | Glossary On
Versions: 1 2 3 4 5 6 7 8 9 10 11 12 13 14 15 16 17 18 19 20 21 22 23 24 25 26 27 28 29 30 31 32 33 34 35 36 37 38 39 40 41 42 43 44 45 46 47 48 49 50
000
SXUS52 KTAE 230718
OSOTAE
OSOTAE
North Florida/South Alabama/Southwest Georgia Weather Roundup
National Weather Service Tallahassee Florida
300 AM EDT SAT AUG 23 2014

Note: "fair" indicates few or no clouds below 12,000 feet with no
significant weather and/or obstructions to visibility.

!FLZ017-115-028-034-025-230800
...North Florida...

CITY           SKY/WX    TMP DP  RH WIND       PRES   REMARKS
TALLAHASSEE    CLEAR     78  74  87 CALM      29.98F
APALACHICOLA   CLEAR     78  73  84 CALM      29.98F
PERRY          CLEAR     77  72  83 CALM      29.98F
CROSS CITY       N/A     76  74  93 CALM      29.98F
HOMERVILLE     FAIR      79  73  83 CALM      29.97F
JACKSONVILLE   CLEAR     77  74  90 W6        29.96F
$$

!FLZ112-006-005-002-011-230800
...Florida Panhandle...

CITY           SKY/WX    TMP DP  RH WIND       PRES   REMARKS
MARIANNA       CLEAR     79  78  97 CALM      29.98F
BONIFAY        FAIR      75  75 100 CALM      29.99F FOG
PANAMA CITY NW FAIR      81  77  88 CALM      29.97F
TYNDALL AFB    CLEAR     79  79 100 CALM      29.99F
TYND DRONE APT NOT AVBL
DE FUNIAK SPR  FAIR      78  75  90 CALM      30.00F
EGLIN AFB      PTCLDY    80  76  88 W2        29.99F
DESTIN         CLEAR     85  77  77 CALM      29.99F HX  95
HURLBURT       PTCLDY    83  73  72 W2        29.98F
CRESTVIEW      CLEAR     76  74  93 CALM      30.00F
PENSACOLA      CLEAR     80  75  84 W7        29.99F
$$

!ALZ063-066-230800
...South Alabama...

CITY           SKY/WX    TMP DP  RH WIND       PRES   REMARKS
DOTHAN         CLEAR     77  74  90 CALM      30.02F
OZARK CAIRNS   CLEAR     78  75  91 CALM      29.99F
FT RUCKER HELI CLEAR     75  73  93 CALM      29.98F
RUCKER HELI 3  FAIR      76  73  91 NW1       30.02F
RUCKER HELI 2  FAIR      76  74  93 CALM      29.99F
FLORALA APT    CLEAR     78  74  87 CALM      30.01F
ANDALUSIA      CLEAR     81  75  82 CALM      30.00F
TROY           CLEAR     75  73  93 CALM      30.00F FOG
EUFALA         FAIR      75  73  93 CALM      29.98F
MOBILE         CLEAR     78  76  93 W5        30.01F
$$

!GAZ120>161-230800
...Southwest and South Central Georgia...

CITY           SKY/WX    TMP DP  RH WIND       PRES   REMARKS
THOMASVILLE    FAIR      79  77  94 W3        29.99F
BAINBRIDGE     CLEAR     79  77  94 CALM      29.98F
MOODY AFB      CLEAR     80  73  78 SW2       29.97F
VALDOSTA       CLEAR     76  71  85 CALM      29.98S
MOULTRIE       CLEAR     79  73  83 CALM      29.99F
BLAKELY        CLEAR     77  75  94 CALM        N/A
ALBANY         CLEAR     77  74  90 CALM      30.00S
TIFTON         FAIR      80  72  75 CALM      29.98S
FITZGERALD     FAIR      80  73  78 CALM      30.00S
CORDELE        FAIR      78  75  92 CALM      29.99S
AMERICUS       FAIR      79  72  78 W3        30.00F
$$

!GMZ750-755-770-775-230800
...Coastal and Buoy Obs...

STATION/POSITION TIME  TEMP    WIND        PRES    VSBY  WAVE
                       AIR SEA DIR/SP/G                  HT/PER
                 (UTC) (F)     (DEG/KT/KT) (MB)    (MI)  (FT/S)
KEATON BEACH     0700   81     340/  2/  3 1015.0F
CEDAR KEY        0700   85      30/  3/  3 1015.7F
C TOWER          0700   83     300/  8/  9 1015.2F
APALACHICOLA BUO 0700   85 87  340/  6/  8 1015.2F         1
PANAMA CITY BUOY 0617   86 88  310/  4/  6 1015.5F         1
MOBILE BUOY      0638   86 89  270/  8/ 10 1016.3F
ORANGE BCH AL BU 0700   86 87  270/ 10/ 12 1015.7F         1
$$



USA.gov is the U.S. government's official web portal to all federal, state and local government web resources and services.